Flag for Canada Weather past 2 weeks in Gander, Newfoundland and Labrador, Canada

Now
63 °F

Sprinkles. Cloudy.


Feels Like: 63 °F
Forecast: 57 / 70 °F
Wind: 12 mph from Southeast

Location: Gander Int. Airport

Current Time: Aug 20, 2014 at 12:32:25 PM

Latest Report: Aug 20, 2014 at 11:30 AM


Visibility: 8 mi

Pressure: 29.80 "Hg

Humidity: 94%

Dew point: 61 °F

Location of GanderLocation

Historic Weather in Gander — Graph

°F

Gander temperature yesterday

Maximum temperature yesterday: 73 °F (at 2:30 PM)
Minimum temperature yesterday: 59 °F (at 12:21 AM)
Average temperature yesterday: 64 °F

Past Weeks' High & Low Weather Summary

 TemperatureHumidityPressure
High73 °F (Aug 19, 2:30 PM)100% (Aug 6, 10:30 PM)30.27 "Hg (Aug 6, 10:30 PM)
Low54 °F (Aug 17, 1:30 AM)56% (Aug 16, 3:30 PM)29.59 "Hg (Aug 19, 10:30 AM)
Average61 °F92%29.99 "Hg
* Reported Aug 5 11:30 AM — Aug 20 11:30 AM, Gander, Weather by CustomWeather, © 2014

Note: Actual official high and low records may vary slightly from our data, if they occured in-between our weather recording intervals... More about our weather records

Advertising

Gander weather history for previous 24 hours

 ConditionsComfort  
Time TempWeatherWind HumidityBarometerVisibility
11:30 AM
Aug 20
63 °FSprinkles. Cloudy.12 mph94%29.80 "Hg8 mi
10:30 AM64 °FPartly sunny.10 mph88%29.79 "Hg15 mi
9:30 AM64 °FPartly sunny.10 mph88%29.79 "Hg15 mi
8:30 AM61 °FBroken clouds.7 mph100%29.79 "Hg12 mi
7:30 AM59 °FPartly sunny.7 mph100%29.79 "Hg12 mi
6:30 AM57 °FPassing clouds.5 mph100%29.78 "Hg12 mi
5:30 AM57 °FPassing clouds.7 mph100%29.77 "Hg12 mi
4:30 AM57 °FPassing clouds.12 mph100%29.76 "Hg12 mi
3:30 AM57 °FPassing clouds.12 mph100%29.76 "Hg12 mi
2:30 AM59 °FPassing clouds.10 mph94%29.75 "Hg12 mi
1:30 AM59 °FPassing clouds.10 mph100%29.74 "Hg12 mi
12:30 AM59 °FPassing clouds.10 mph100%29.73 "Hg15 mi
11:30 PM
Aug 19
61 °FPassing clouds.9 mph94%29.72 "Hg15 mi
10:30 PM61 °FPartly cloudy.7 mph100%29.72 "Hg15 mi
9:30 PM63 °FPassing clouds.10 mph94%29.72 "Hg15 mi
8:30 PM63 °FSprinkles. Fog.17 mph94%29.71 "Hg4 mi
7:30 PM68 °FBroken clouds.12 mph73%29.68 "Hg20 mi
6:30 PM68 °FPartly sunny.9 mph78%29.66 "Hg20 mi
5:30 PM70 °FPartly sunny.9 mph83%29.64 "Hg20 mi
4:30 PM70 °FPartly sunny.10 mph78%29.64 "Hg20 mi
4:20 PM70 °FBroken clouds.10 mph83%29.64 "Hg20 mi
3:30 PM70 °FPartly sunny.12 mph88%29.63 "Hg20 mi
2:30 PM73 °FBroken clouds.8 mph78%29.63 "Hg20 mi
1:30 PM70 °FPartly sunny.12 mph94%29.64 "Hg20 mi
12:30 PM66 °FBroken clouds.15 mph94%29.63 "Hg20 mi
Weather by CustomWeather, © 2014

See weather overviewHow to use our weather pages